Regional Weather Roundup
Issued by NWS

Home | Current Version | Previous Version | Graphics & Text | Print | Product List | Glossary On
Versions: 1 2 3 4 5 6 7 8 9 10 11 12 13 14 15 16 17 18 19 20 21 22 23 24 25 26 27 28 29 30 31 32 33 34 35 36 37 38 39 40 41 42 43 44 45 46 47 48 49 50
000
ASUS45 KBOU 230107
RWRCO

WEATHER ROUNDUP FOR COLORADO
NATIONAL WEATHER SERVICE DENVER/BOULDER CO
700 PM MDT FRI JUL 22 2016

NOTE: "FAIR" INDICATES FEW OR NO CLOUDS BELOW 12000 FEET WITH NO
SIGNIFICANT WEATHER AND/OR OBSTRUCTIONS TO VISIBILITY.

COZ001>005-013-030-031-230200-
...NORTHWEST COLORADO...

CITY           SKY/WX    TMP DP  RH WIND       PRES   REMARKS
CRAIG          FAIR      77  45  32 W23G32    30.28R
HAYDEN         FAIR      79  43  27 SW13      30.27R
MEEKER         FAIR      80  48  32 W13G25    30.31R
MOUNT WERNER   NOT AVBL
STEAMBOAT SPGS FAIR      80  49  34 SW7       30.29R
WALDEN         PTSUNNY   73  41  31 SW14G20   30.38R
$$

COZ006>008-011-230200-
...WEST CENTRAL VALLEYS...

CITY           SKY/WX    TMP DP  RH WIND       PRES   REMARKS
GRAND JUNCTION PTSUNNY   91  48  22 SE16      30.11S
MONTROSE       FAIR      81  48  31 E14       30.23F
EAGLE          PTSUNNY   81  45  28 NW10G20   30.30R
RIFLE          PTSUNNY   72  58  61 CALM      30.23F
DELTA          FAIR      89  47  23 NE7       30.18F HAZE
NUCLA          FAIR      82  46  28 SE9       30.26S
$$

COZ017>023-064>068-230200-
...SOUTHWEST COLORADO...

CITY           SKY/WX    TMP DP  RH WIND       PRES   REMARKS
DURANGO        FAIR      83  45  26 NW8       30.25F
CORTEZ         FAIR      88  48  25 NE8       30.20F
PAGOSA SPRINGS FAIR      83  37  19 SW10      30.34F
TELLURIDE      PTSUNNY   66  49  54 E5        30.51F
WOLF CREEK PAS PTSUNNY   55  41  58 SW8       30.75F
$$

COZ009-010-012-014-032>034-037-058>063-230200-
...CENTRAL COLORADO...

CITY           SKY/WX    TMP DP  RH WIND       PRES   REMARKS
ASPEN          FAIR      73  46  38 SE9       30.39F
BUENA VISTA    FAIR      72  43  35 W8        30.40F
COPPER MTN     CLOUDY    59  39  47 CALM      30.75R
BERTHOUD PASS  PTSUNNY   52  37  58 NW12      30.76F
COTTONWOOD PAS PTSUNNY   64  37  36 W18G29    30.54F
GUNNISON       FAIR      66  48  52 NW5       30.44F
KREMMLING      LGT RAIN  70  43  37 S9G21     30.36F
LEADVILLE      FAIR      59  45  59 CALM      30.56F
MONARCH PASS   FAIR      55  41  58 MISG      30.83F
SALIDA         FAIR      78  44  28 W12       30.43F
SUNLIGHT       FAIR      59  41  51 NW5       30.68S
WILKERSON PASS FAIR      61  36  39 W7        30.69S
$$

COZ069>075-230200-
...SAN LUIS VALLEY/SANGRE DE CRISTO MOUNTAINS...

CITY           SKY/WX    TMP DP  RH WIND       PRES   REMARKS
ALAMOSA        FAIR      79  46  31 N16G24    30.33R
LA VETA PASS   FAIR      66  36  32 W7        30.56S
SAGUACHE       FAIR      73  46  38 NW18G26   30.39F
$$

COZ035-036-038>040-230200-
...NORTHERN COLORADO FRONT RANGE...

CITY           SKY/WX    TMP DP  RH WIND       PRES   REMARKS
DENVER INTL AP PTSUNNY   87  50  27 S13       30.10S
DMNS CITY PARK   N/A     83  47  28 SW8G22    30.10S
AURORA         PTSUNNY   83  53  35 SW10      30.13F
FRONT RANGE AP PTSUNNY   88  48  25 S7        30.12F
ERIE MUNI ARPT FAIR      91  43  18 S10       30.07S
BOULDER MUN AP PTSUNNY   88  50  27 N8        30.08S
CENTENNIAL     PTSUNNY   81  48  31 SW13      30.15F
BROOMFIELD     PTSUNNY   88  50  27 SE14G25   30.13F
LONGMONT       FAIR      89  50  26 N6        30.08F
$$

COZ041-046-047-076>085-087-088-230200-
...PIKES PEAK/PALMER DIVIDE AND SOUTHERN FOOTHILLS...

CITY           SKY/WX    TMP DP  RH WIND       PRES   REMARKS
COLO. SPRINGS  PTSUNNY   82  52  35 NE8       30.21S
A. F. ACADEMY  FAIR      83  46  27 SW7       30.22F
SCHRIEVER AFB  NOT AVBL
ELLICOTT       FAIR     N/A N/A N/A SE10G23   30.20R THUNDER
FALCON         FAIR      78  48  35 NE8       30.27F
FORT CARSON    NOT AVBL
LIMON          FAIR      83  47  28 W15       30.11F
MONUMENT HILL  FAIR      72  55  56 S7        30.28F
TRINIDAD       NOT AVBL
$$

COZ042>045-048>051-090-091-230200-
...NORTHEAST COLORADO...

CITY           SKY/WX    TMP DP  RH WIND       PRES   REMARKS
GREELEY ARPT   FAIR      88  57  35 N3        30.05S
AKRON          FAIR      87  59  38 E7        30.04F
BURLINGTON     FAIR      94  54  25 SE15      30.00F
WRAY           NOT AVBL
STERLING       FAIR      91  64  40 SE7       29.97F
HOLYOKE        FAIR      86  61  42 W12       29.98F
FORT MORGAN    FAIR      91  55  30 E7        30.02F
$$

COZ086-089-092>099-230200-
...SOUTHEAST COLORADO...

CITY           SKY/WX    TMP DP  RH WIND       PRES   REMARKS
PUEBLO         FAIR      86  61  42 N14       30.05F
LA JUNTA       FAIR      96  47  18 SW9       30.00S
LAMAR          FAIR      98  53  22 S13       29.94R
SPRINGFIELD      N/A     91  50  24 S9        30.02F
$$



USA.gov is the U.S. government's official web portal to all federal, state and local government web resources and services.